Lid_Strength_Index
9 9 9 9 9 9 9 8 7 6 6 6 5 4 4 3 3 3 3 3 4 4
9 8 9 9 8 8 8 6 6 6 6 6 5 5 5 4 3 3 3 4 4 3
8 8 8 7 8 8 7 7 7 7 6 6 6 6 6 6 5 6 6 6 6 5
8 8 9 8 7 8 7 6 5 6 6 6 6 6 7 6 6 7 8 8 8 8
8 9 8 8 7 7 6 5 5 6 7 7 7 7 7 7 7 7 8 8 7 7
9 7 7 7 7 7 7 7 6 7 8 8 8 8 7 7 7 7 7 7 7 6
6 7 8 8 8 7 7 7 7 8 9 9 9 9 8 7 7 7 8 7 6 5
7 8 8 8 8 7 7 8 8 9 10 10 10 8 8 8 7 7 8 7 6 5
8 8 8 8 8 8 8 8 9 9 10 11 10 7 6 7 7 6 7 7 6 6
8 8 8 8 9 9 9 9 9 10 11 11 11 7 7 5 7 6 7 6 6 5
8 8 8 10 11 10 9 9 9 11 11 12 11 7 7 6 9 8 7 6 6 6
8 9 9 11 12 11 11 10 10 11 12 12 12 8 7 8 9 8 7 6 6 5
9 10 11 12 12 12 11 9 9 10 11 9 12 8 7 7 8 9 7 7 6 3
9 10 13 14 14 13 12 11 12 12 13 12 10 10 7 6 8 8 8 7 7 6